Погода в Дартмуте

Великобритания     50°21′10″N   3°35′25″W
темп.,
°C
ветер,
м/с
пор.,
м/с
влажн.,
%
обл.,
%
осадки,
мм/ч
давл.,
гПа
погр.,
м
15 августа, пн
пн1501:00+20зюз22715 0.0 100314
04:00+19сз2270100 0.0 100222
07:00+20с3365100 0.0 100246
10:00+20юз2268100 0.0 100374
13:00+21ююз2267100 0.1 1003118
16:00+21юз667415 0.0 1003262
19:00+20зюз6882100 0.0 1003257
22:00+19зюз5785100 0.0 1004253
16 августа, вт
вт1601:00+19юз6686100 0.0 1004287
04:00+19ю358399 0.4 1004302
07:00+17ю7988100 1.3 1005481
10:00+17ю2483100 0.7 1005285
13:00+19в567799 0.7 1006616
16:00+18всв7983100 1.4 1006657
19:00+18св7785100 1.6 1007549
22:00+19св568584 0.4 1008452
17 августа, ср
ср1701:00+18ссв788450 1.1 1009336
04:00+18ссв9108372 0.8 1009435
07:00+18св10128515 1.1 1010553
10:00+18св111285100 0.0 1012760
13:00+19св8108151 0.1 1013792
16:00+20ссв8107917 0.0 1014602
19:00+21с8117110 0.0 1014309
22:00+20с8127288 0.0 1016328
18 августа, чт
чт1801:00+19с7117699 0.0 1017386
04:00+18ссв7878100 0.0 1017363
07:00+18ссв5679100 0.0 1018325
10:00+18ссв337580 0.0 1018295
13:00+19ююз447378 0.0 1018358
16:00+20зюз897399 0.0 1018371
19:00+20зюз8977100 0.0 1017285
22:00+19зюз710925 0.0 1018313
19 августа, пт
пт1901:00+19зюз69935 0.1 1017289
04:00+19зюз6109193 0.1 1016328
07:00+20зюз91386100 0.1 1016515
10:00+19зюз81089100 0.6 1016642
13:00+20зюз797873 1.1 1016395
16:00+21зюз910711 0.0 1016358
19:00+20з811660 0.0 1017380
22:00+17зсз68703 0.0 1018644